FW7858 Weather Reports


Display with metric or nautical units.
time (UTC)temp
F
wind
direction
speed
MPH
gust
MPH
rain 1hr
in
rain 24hr
in
rain mn
in
humidity
%
barometer
mb
20260504223537 47 360 4.0 10.0 0.00 0.00 0.00 53 1003.5
20260504223042 47 360 5.0 10.0 0.00 0.00 0.00 53 1003.5
20260504222533 47 360 2.0 13.0 0.00 0.00 0.00 54 1003.3
20260504222033 47 360 3.0 9.0 0.00 0.00 0.00 53 1003.3
20260504221536 47 360 3.0 10.0 0.00 0.00 0.00 54 1003.3
20260504221033 47 360 4.0 11.0 0.00 0.00 0.00 53 1003.4
20260504220535 47 360 1.0 11.0 0.00 0.00 0.00 53 1003.3
20260504220032 47 360 3.0 12.0 0.00 0.00 0.00 53 1003.2
20260504215531 47 360 4.0 12.0 0.00 0.00 0.00 51 1003.2
20260504215031 48 360 4.0 12.0 0.00 0.00 0.00 50 1003.1
20260504214531 48 360 3.0 17.0 0.00 0.00 0.00 50 1003.0
20260504214031 48 360 2.0 19.0 0.00 0.00 0.00 50 1003.0
20260504213531 47 360 5.0 14.0 0.00 0.00 0.00 49 1003.0
20260504213053 47 360 4.0 11.0 0.00 0.00 0.00 49 1003.0
20260504212531 47 360 3.0 18.0 0.00 0.00 0.00 48 1003.0
20260504212032 48 360 6.0 18.0 0.00 0.00 0.00 49 1002.9
20260504211530 48 360 3.0 14.0 0.00 0.00 0.00 48 1002.9
20260504211030 49 344 4.0 11.0 0.00 0.00 0.00 49 1002.8
20260504210532 48 360 3.0 16.0 0.00 0.00 0.00 51 1002.8
20260504210030 48 360 3.0 13.0 0.00 0.00 0.00 47 1002.8
20260504205529 48 360 5.0 13.0 0.00 0.00 0.00 48 1002.8
20260504205028 47 360 3.0 12.0 0.00 0.00 0.00 50 1002.9
20260504204530 48 306 3.0 14.0 0.00 0.00 0.00 49 1002.8
20260504204028 48 360 5.0 14.0 0.00 0.00 0.00 50 1003.2
20260504203528 47 360 4.0 13.0 0.00 0.00 0.00 50 1002.9
20260504203031 47 360 3.0 13.0 0.00 0.00 0.00 55 1002.9
20260504202528 46 360 4.0 11.0 0.00 0.00 0.00 52 1002.9
20260504202027 46 360 3.0 11.0 0.00 0.00 0.00 53 1003.0
20260504201532 46 360 4.0 11.0 0.00 0.00 0.00 53 1002.9
20260504201027 46 360 5.0 11.0 0.00 0.00 0.00 52 1003.0
20260504200526 46 360 4.0 11.0 0.00 0.00 0.00 53 1002.9
20260504200027 46 360 3.0 11.0 0.00 0.00 0.00 56 1002.9
20260504195525 45 360 3.0 11.0 0.00 0.00 0.00 56 1003.0
20260504195025 45 360 2.0 18.0 0.00 0.00 0.00 58 1003.1
20260504194525 45 360 3.0 18.0 0.00 0.00 0.00 56 1002.9
20260504194025 46 360 5.0 11.0 0.00 0.00 0.00 53 1002.8
20260504193524 46 360 3.0 13.0 0.00 0.00 0.00 54 1002.8
20260504193024 46 360 4.0 11.0 0.00 0.00 0.00 54 1002.7
20260504192523 46 360 3.0 11.0 0.00 0.00 0.00 56 1002.7
20260504192024 46 360 3.0 13.0 0.00 0.00 0.00 56 1002.5
20260504191523 46 360 2.0 13.0 0.00 0.00 0.00 57 1002.6
20260504191022 46 360 3.0 13.0 0.00 0.00 0.00 56 1002.5
20260504190521 46 360 3.0 13.0 0.00 0.00 0.00 54 1002.4
20260504190020 47 360 4.0 13.0 0.00 0.00 0.00 56 1002.4
20260504185524 47 360 3.0 11.0 0.00 0.00 0.00 57 1002.2
20260504185019 47 360 5.0 11.0 0.00 0.00 0.00 56 1002.2
20260504184519 47 360 3.0 12.0 0.00 0.00 0.00 53 1002.0
20260504184017 47 360 3.0 12.0 0.00 0.00 0.00 52 1001.9
20260504183519 47 360 5.0 14.0 0.00 0.00 0.00 54 1002.1
20260504183022 46 360 4.0 14.0 0.00 0.00 0.00 56 1001.9
20260504182519 46 360 4.0 16.0 0.00 0.00 0.00 57 1002.0
20260504182020 46 360 6.0 16.0 0.00 0.00 0.00 56 1001.7
20260504181518 47 360 4.0 11.0 0.00 0.00 0.00 55 1001.7
20260504181016 46 360 4.0 12.0 0.00 0.00 0.00 55 1001.7
20260504180515 47 360 4.0 10.0 0.00 0.00 0.00 56 1001.6
20260504180015 47 360 3.0 10.0 0.00 0.00 0.00 56 1001.4
20260504175514 46 360 4.0 12.0 0.00 0.00 0.00 54 1001.4
20260504175018 46 360 3.0 12.0 0.00 0.00 0.00 54 1001.3
20260504174513 47 360 4.0 14.0 0.00 0.00 0.00 54 1001.2
20260504174014 47 360 4.0 14.0 0.00 0.00 0.00 53 1001.3
20260504173517 47 360 3.0 11.0 0.00 0.00 0.00 54 1001.3
20260504173023 47 360 5.0 15.0 0.00 0.00 0.00 56 1001.1
20260504172511 46 360 4.0 15.0 0.00 0.00 0.00 56 1001.1
20260504172011 47 360 6.0 11.0 0.00 0.00 0.00 58 1000.9
20260504171518 47 360 4.0 13.0 0.00 0.00 0.00 59 1000.9
20260504171011 47 360 3.0 13.0 0.00 0.00 0.00 60 1000.8
20260504170509 47 360 2.0 11.0 0.00 0.00 0.00 61 1000.8
20260504151002 46 360 2.0 10.0 0.00 0.00 0.00 66 999.7
20260504150501 46 360 3.0 13.0 0.00 0.00 0.00 65 999.7
20260504141158 45 360 3.0 8.0 0.00 0.00 0.00 70 999.1
20260504140556 44 360 4.0 9.0 0.00 0.00 0.00 72 999.1
20260504140108 44 360 3.0 10.0 0.00 0.00 0.00 72 999.1
20260504130550 44 360 3.0 10.0 0.00 0.00 0.00 72 998.2
20260504110522 48 360 8.0 12.0 0.00 0.00 0.00 73 996.0
20260504100510 48 360 3.0 5.0 0.00 0.00 0.00 71 995.1
20260504090120 49 360 0.0 5.0 0.00 0.00 0.00 70 995.0
20260504081554 51 360 3.0 11.0 0.00 0.00 0.00 66 995.2
20260504081049 52 360 4.0 11.0 0.00 0.00 0.00 65 995.0
20260504080551 52 360 4.0 11.0 0.00 0.00 0.00 64 995.0
20260504050512 58 262 16.0 24.0 0.00 0.00 0.00 46 994.4
20260504050015 59 265 16.0 24.0 0.00 0.00 0.00 45 994.5
20260504045509 59 254 17.0 21.0 0.00 0.00 0.00 45 994.6
20260504045012 59 249 16.0 21.0 0.00 0.00 0.00 45 994.8
20260504044519 59 264 16.0 19.0 0.00 0.00 0.00 45 994.9
20260504044007 59 267 14.0 20.0 0.00 0.00 0.00 45 995.1
20260504043507 59 263 15.0 24.0 0.00 0.00 0.00 44 995.1
20260504043006 59 259 15.0 23.0 0.00 0.00 0.00 44 995.2
20260504042506 59 269 16.0 23.0 0.00 0.00 0.00 44 995.4
20260504042008 60 271 14.0 20.0 0.00 0.00 0.00 44 995.5
20260504041504 60 259 16.0 20.0 0.00 0.00 0.00 43 995.6
20260504041003 60 258 15.0 23.0 0.00 0.00 0.00 43 995.7
20260504040503 60 269 15.0 21.0 0.00 0.00 0.00 43 995.8
20260504040002 60 254 14.0 21.0 0.00 0.00 0.00 43 995.9
20260504035501 60 254 14.0 21.0 0.00 0.00 0.00 42 996.0
20260504035100 60 254 15.0 19.0 0.00 0.00 0.00 42 996.0
20260504034605 60 255 14.0 21.0 0.00 0.00 0.00 43 996.2
20260504034059 60 253 14.0 21.0 0.00 0.00 0.00 43 996.4
20260504033558 60 244 15.0 21.0 0.00 0.00 0.00 43 996.5
20260504033114 60 241 14.0 19.0 0.00 0.00 0.00 43 996.6
20260504032600 60 243 13.0 19.0 0.00 0.00 0.00 43 996.7
20260504032056 60 252 14.0 18.0 0.00 0.00 0.00 43 996.8
20260504031555 60 252 13.0 17.0 0.00 0.00 0.00 43 996.9
20260504031053 60 253 13.0 19.0 0.00 0.00 0.00 43 997.1
20260504030555 61 254 14.0 20.0 0.00 0.00 0.00 43 997.2
20260504030052 61 250 14.0 20.0 0.00 0.00 0.00 43 997.2
20260504025552 61 254 13.0 16.0 0.00 0.00 0.00 43 997.3
20260504025052 61 248 12.0 17.0 0.00 0.00 0.00 42 997.3
20260504024551 61 259 13.0 18.0 0.00 0.00 0.00 42 997.3
20260504024051 61 252 14.0 18.0 0.00 0.00 0.00 41 997.4
20260504023550 61 248 13.0 19.0 0.00 0.00 0.00 42 997.5
20260504023051 62 228 13.0 19.0 0.00 0.00 0.00 42 997.5
20260504022549 62 259 12.0 17.0 0.00 0.00 0.00 41 997.6
20260504022052 62 257 13.0 17.0 0.00 0.00 0.00 41 997.8
20260504021547 62 250 12.0 17.0 0.00 0.00 0.00 40 997.8
20260504021046 62 255 12.0 16.0 0.00 0.00 0.00 40 997.9
20260504020545 62 256 11.0 16.0 0.00 0.00 0.00 40 998.0
20260504020045 62 250 10.0 14.0 0.00 0.00 0.00 39 998.1
20260504015544 62 259 10.0 15.0 0.00 0.00 0.00 39 998.2
20260504015047 62 249 11.0 16.0 0.00 0.00 0.00 38 998.3
20260504014542 63 266 11.0 16.0 0.00 0.00 0.00 38 998.4
20260504014042 63 256 10.0 13.0 0.00 0.00 0.00 38 998.5
20260504013540 63 258 10.0 13.0 0.00 0.00 0.00 37 998.6
20260504013043 63 265 8.0 12.0 0.00 0.00 0.00 37 998.7
20260504012544 63 275 9.0 12.0 0.00 0.00 0.00 37 998.9
20260504012039 64 275 9.0 14.0 0.00 0.00 0.00 37 999.0
20260504011538 65 289 9.0 14.0 0.00 0.00 0.00 36 999.0
20260504011036 66 272 10.0 14.0 0.00 0.00 0.00 35 999.1
20260504010535 67 273 9.0 17.0 0.00 0.00 0.00 33 999.2
20260504010046 67 293 13.0 19.0 0.00 0.00 0.00 33 999.3
20260504005533 67 272 11.0 19.0 0.00 0.00 0.00 33 999.5
20260504005033 68 291 13.0 19.0 0.00 0.00 0.00 32 999.5
20260504004532 68 281 14.0 22.0 0.00 0.00 0.00 31 999.6
20260504004033 68 277 15.0 22.0 0.00 0.00 0.00 32 999.7
20260504003531 68 263 14.0 22.0 0.00 0.00 0.00 31 999.7
20260504003030 69 288 16.0 22.0 0.00 0.00 0.00 31 999.7
20260504002531 69 293 13.0 21.0 0.00 0.00 0.00 31 999.8
20260504002029 69 300 14.0 21.0 0.00 0.00 0.00 31 1000.0
20260504001529 69 313 12.0 18.0 0.00 0.00 0.00 32 1000.1
20260504001029 69 279 12.0 17.0 0.00 0.00 0.00 31 1000.1
20260504000530 69 306 12.0 16.0 0.00 0.00 0.00 32 1000.2
20260504000026 69 279 11.0 19.0 0.00 0.00 0.00 32 1000.3
20260503235525 69 298 13.0 30.0 0.00 0.00 0.00 31 1000.4
20260503235025 69 300 18.0 30.0 0.00 0.00 0.00 31 1000.4
20260503234526 70 298 16.0 25.0 0.00 0.00 0.00 30 1000.6
20260503234024 70 298 17.0 25.0 0.00 0.00 0.00 30 1000.6
20260503233523 70 284 14.0 25.0 0.00 0.00 0.00 32 1000.6
20260503233024 70 303 18.0 25.0 0.00 0.00 0.00 31 1000.6
20260503232522 70 308 16.0 21.0 0.00 0.00 0.00 31 1000.7
20260503232025 70 300 16.0 20.0 0.00 0.00 0.00 31 1000.7
20260503231522 70 289 13.0 20.0 0.00 0.00 0.00 32 1000.7
20260503231021 70 294 14.0 20.0 0.00 0.00 0.00 30 1000.8
20260503230519 70 304 14.0 21.0 0.00 0.00 0.00 31 1001.0
20260503230022 69 294 14.0 23.0 0.00 0.00 0.00 31 1001.0
20260503225516 69 296 13.0 22.0 0.00 0.00 0.00 31 1001.2
20260503225015 69 292 15.0 23.0 0.00 0.00 0.00 31 1001.3
20260503224515 69 287 15.0 23.0 0.00 0.00 0.00 32 1001.5
20260503224023 69 284 13.0 20.0 0.00 0.00 0.00 32 1001.6